Weather History for Jaffrey, NH

Change the Weather History Date:

Monday, December 3, 2012

  Actual Average Record
Temperature  
Mean Temperature 40 °F -  
Max Temperature 52 °F 37 °F 52 °F (1998)
Min Temperature 28 °F 22 °F 8 °F (2002)
Degree Days  
Heating Degree Days 25    
Moisture  
Dew Point 37 °F    
Average Humidity 81    
Maximum Humidity 96    
Minimum Humidity 57    
Precipitation  
Precipitation 0.00 in - - ()
Sea Level Pressure  
Sea Level Pressure 30.16 in    
Wind  
Wind Speed 5 mph (SSW)    
Max Wind Speed 10 mph    
Max Gust Speed 22 mph    
Visibility 8 miles    
Events      
Averages and records for this station are not official NWS values.
T = Trace of Precipitation, MM = Missing Value Source: NWS Daily Summary

Daily Weather History Graph

Daily Weather History Graph

Search for Another Location

Airport:

Trip Planner

Search our weather history database for the weather conditions in past years. The results will help you decide how hot, cold, wet, or windy it might be!

Date:

Astronomy

Dec. 03, 2012 Rise Set
Actual Time 7:01 AM EST 4:14 PM EST
Civil Twilight 6:29 AM EST 4:46 PM EST
Nautical Twilight 5:54 AM EST 5:21 PM EST
Astronomical Twilight 5:20 AM EST 5:55 PM EST
Moon 9:02 PM EST (12/3) 10:19 AM EST (12/3)
Length of Visible Light 10h 16m
Length of Day
9h 12m
Waning Gibbous, 78% of the Moon is Illuminated
Dec 3
Waning Gibbous
Dec 6
Last Quarter
Dec 13
New
Dec 20
First Quarter
Dec 28
Full

Hourly Weather History & Observations

Time (EST) Temp. Windchill Dew Point Humidity Pressure Visibility Wind Dir Wind Speed Gust Speed Precip Events Conditions
12:52 AM 44.1 °F 39.5 °F 42.1 °F 93% 30.04 in 3.0 mi SSW 8.1 mph - N/A   Overcast
1:52 AM 44.1 °F 39.5 °F 42.1 °F 93% 30.04 in 3.0 mi SSW 8.1 mph - N/A   Overcast
2:52 AM 44.1 °F 40.8 °F 43.0 °F 96% 30.05 in 3.0 mi Variable 5.8 mph - N/A   Overcast
3:52 AM 45.0 °F 43.5 °F 43.0 °F 93% 30.05 in 4.0 mi South 3.5 mph - N/A   Overcast
4:52 AM 45.0 °F 42.6 °F 43.0 °F 93% 30.07 in 6.0 mi Variable 4.6 mph - N/A   Overcast
5:04 AM 44.6 °F 41.4 °F 42.8 °F 93% 30.04 in 5.0 mi SE 5.8 mph - N/A   Overcast
5:18 AM 46.4 °F 43.5 °F 42.8 °F 87% 30.04 in 6.0 mi South 5.8 mph - N/A   Overcast
5:29 AM 46.4 °F 43.5 °F 42.8 °F 87% 30.04 in 7.0 mi South 5.8 mph - N/A   Overcast
5:39 AM 44.6 °F 40.7 °F 42.8 °F 93% 30.04 in 7.0 mi South 6.9 mph - N/A   Overcast
5:52 AM 45.0 °F 42.6 °F 42.1 °F 90% 30.08 in 6.0 mi South 4.6 mph - N/A   Overcast
6:52 AM 44.1 °F - 41.0 °F 89% 30.10 in 7.0 mi Calm Calm - N/A   Partly Cloudy
7:52 AM 48.0 °F - 39.9 °F 74% 30.12 in 10.0 mi NW 10.4 mph 21.9 mph N/A   Mostly Cloudy
8:52 AM 48.0 °F - 39.9 °F 74% 30.15 in 10.0 mi Calm Calm - N/A   Overcast
9:52 AM 50.0 °F - 39.0 °F 66% 30.18 in 10.0 mi Variable 4.6 mph - N/A   Overcast
10:52 AM 50.0 °F - 37.9 °F 63% 30.18 in 10.0 mi WNW 9.2 mph 17.3 mph N/A   Mostly Cloudy
11:29 AM 51.8 °F - 37.4 °F 58% 30.14 in 10.0 mi Variable 6.9 mph - N/A   Mostly Cloudy
11:52 AM 51.1 °F - 37.9 °F 61% 30.18 in 10.0 mi Variable 4.6 mph - N/A   Mostly Cloudy
12:36 PM 51.8 °F - 37.4 °F 58% 30.14 in 10.0 mi NNW 8.1 mph - N/A   Scattered Clouds
12:52 PM 51.1 °F - 37.0 °F 59% 30.17 in 10.0 mi Variable 3.5 mph - N/A   Clear
1:52 PM 52.0 °F - 37.0 °F 57% 30.18 in 10.0 mi Variable 4.6 mph - N/A   Clear
2:52 PM 50.0 °F - 37.0 °F 61% 30.19 in 10.0 mi NNW 3.5 mph - N/A   Clear
3:52 PM 46.0 °F - 37.0 °F 71% 30.21 in 10.0 mi Calm Calm - N/A   Clear
4:52 PM 41.0 °F - 36.0 °F 82% 30.23 in 10.0 mi Calm Calm - N/A   Clear
5:52 PM 37.0 °F - 34.0 °F 89% 30.26 in 10.0 mi Calm Calm - N/A   Clear
6:52 PM 34.0 °F - 32.0 °F 92% 30.28 in 10.0 mi Calm Calm - N/A   Clear
7:52 PM 30.9 °F - 28.9 °F 92% 30.29 in 10.0 mi Calm Calm - N/A   Clear
8:52 PM 30.0 °F - 28.0 °F 92% 30.29 in 9.0 mi Calm Calm - N/A   Clear
9:52 PM 28.9 °F - 27.0 °F 92% 30.30 in 10.0 mi Calm Calm - N/A   Clear
10:52 PM 28.9 °F - 27.0 °F 92% 30.32 in 9.0 mi Calm Calm - N/A   Clear
11:52 PM 28.0 °F - 26.1 °F 92% 30.32 in 10.0 mi Calm Calm - N/A   Clear